Powrót do katalogu

STARLINK-34646

AktywnyŁącznośćVLEO
NORAD 64796·PAYLOAD·🇺🇸 United States

Wystrzelony Jul 16, 2025 z Vandenberg Space Force Base

Loading…

Następne Przeloty (najbliższe 24 godziny)

TLE

ŚwieżeSource: CelesTrak SupGP

Epoka: Sep 14, 2026, 21:05 UTC

1 64796C 25150G   26257.87895833 -.00021108  00000+0 -17682-2 0  2574
2 64796  70.0030  17.5226 0003588 271.0972  78.8791 14.98356141    12

Śledź STARLINK-34646 w czasie rzeczywistym z AllMySat

Download on the App Store